Weather History for KSGT - May, 2013

Change the Weather History Date:

Friday, May 17, 2013

  Actual Average Record
Temperature  
Mean Temperature 73 °F -  
Max Temperature 82 °F 79 °F 89 °F (1998)
Min Temperature 64 °F 60 °F 48 °F (2011)
Cooling Degree Days 8    
Growing Degree Days 23 (Base 50)    
Moisture  
Dew Point 65 °F    
Average Humidity 76    
Maximum Humidity 88    
Minimum Humidity 58    
Precipitation  
Precipitation 0.47 in - - ()
Sea Level Pressure  
Sea Level Pressure 29.90 in    
Wind  
Wind Speed 10 mph (SSW)    
Max Wind Speed 24 mph    
Max Gust Speed 26 mph    
Visibility 10 miles    
Events      
Averages and records for this station are not official NWS values.
T = Trace of Precipitation, MM = Missing Value Source: NWS Daily Summary

Daily Weather History Graph

Daily Weather History Graph

Search for Another Location

Airport or City:

Trip Planner

Search our weather history database for the weather conditions in past years. The results will help you decide how hot, cold, wet, or windy it might be!

Date:

Astronomy

May. 17, 2013 Rise Set
Actual Time 6:01 AM CDT 8:03 PM CDT
Civil Twilight 5:33 AM CDT 8:31 PM CDT
Nautical Twilight 4:59 AM CDT 9:06 PM CDT
Astronomical Twilight 4:23 AM CDT 9:42 PM CDT
Moon 12:27 PM CDT (5/17) 1:02 AM CDT (5/17)
Length of Visible Light 14h 58m
Length of Day
14h 01m
Waxing Crescent, 45% of the Moon is Illuminated
May 17
Waxing Crescent
May 17
First Quarter
May 24
Full
May 31
Last Quarter
Jun 8
New

Hourly Weather History & Observations

Time (CDT) Temp. Heat Index Dew Point Humidity Pressure Visibility Wind Dir Wind Speed Gust Speed Precip Events Conditions
12:15 AM 68.0 °F - 62.6 °F 83% 29.88 in 8.0 mi ENE 8.1 mph - 0.06 in   Overcast
12:35 AM 66.2 °F - 62.6 °F 88% 29.88 in 5.0 mi East 10.4 mph - 0.25 in   Overcast
12:55 AM 66.2 °F - 62.6 °F 88% 29.86 in 10.0 mi East 12.7 mph - 0.37 in   Overcast
1:15 AM 68.0 °F - 62.6 °F 83% 29.85 in 8.0 mi ESE 16.1 mph 19.6 mph 0.04 in   Overcast
1:35 AM 68.0 °F - 62.6 °F 83% 29.86 in 10.0 mi SE 10.4 mph - 0.04 in   Overcast
1:55 AM 68.0 °F - 62.6 °F 83% 29.85 in 10.0 mi SSE 12.7 mph - 0.04 in   Overcast
2:15 AM 68.0 °F - 62.6 °F 83% 29.85 in 8.0 mi SSE 13.8 mph - 0.04 in   Overcast
2:35 AM 68.0 °F - 62.6 °F 83% 29.85 in 10.0 mi SSE 18.4 mph 23.0 mph 0.04 in   Overcast
2:55 AM 66.2 °F - 62.6 °F 88% 29.84 in 10.0 mi SSE 21.9 mph 26.5 mph 0.05 in   Overcast
3:15 AM 66.2 °F - 62.6 °F 88% 29.83 in 10.0 mi South 24.2 mph - 0.01 in   Overcast
3:35 AM 66.2 °F - 60.8 °F 83% 29.84 in 10.0 mi SSE 18.4 mph 24.2 mph 0.01 in   Overcast
3:55 AM 66.2 °F - 60.8 °F 83% 29.84 in 10.0 mi SSE 16.1 mph 21.9 mph 0.01 in   Overcast
4:15 AM 66.2 °F - 62.6 °F 88% 29.85 in 10.0 mi SSE 15.0 mph - N/A   Overcast
4:35 AM 66.2 °F - 60.8 °F 83% 29.85 in 10.0 mi SSE 13.8 mph - N/A   Overcast
4:55 AM 64.4 °F - 60.8 °F 88% 29.86 in 10.0 mi South 13.8 mph - N/A   Overcast
5:15 AM 64.4 °F - 60.8 °F 88% 29.87 in 10.0 mi South 10.4 mph - N/A   Overcast
5:35 AM 64.4 °F - 60.8 °F 88% 29.87 in 10.0 mi South 10.4 mph - N/A   Overcast
5:55 AM 64.4 °F - 60.8 °F 88% 29.88 in 10.0 mi South 5.8 mph - N/A   Overcast
6:15 AM 64.4 °F - 60.8 °F 88% 29.88 in 10.0 mi SSE 5.8 mph - N/A   Overcast
6:35 AM 64.4 °F - 60.8 °F 88% 29.89 in 10.0 mi SSE 6.9 mph - N/A   Overcast
7:15 AM 66.2 °F - 62.6 °F 88% 29.90 in 10.0 mi South 6.9 mph - N/A   Overcast
7:35 AM 66.2 °F - 62.6 °F 88% 29.90 in 10.0 mi SSW 8.1 mph - N/A   Overcast
7:55 AM 66.2 °F - 62.6 °F 88% 29.90 in 10.0 mi SW 6.9 mph - N/A   Overcast
8:15 AM 69.8 °F - 64.4 °F 83% 29.91 in 10.0 mi SW 8.1 mph - N/A   Overcast
8:35 AM 69.8 °F - 64.4 °F 83% 29.92 in 10.0 mi SW 9.2 mph - N/A   Overcast
8:55 AM 69.8 °F - 64.4 °F 83% 29.92 in 10.0 mi SW 9.2 mph - N/A   Overcast
9:15 AM 71.6 °F - 64.4 °F 78% 29.93 in 10.0 mi West 8.1 mph - N/A   Overcast
9:35 AM 69.8 °F - 64.4 °F 83% 29.93 in 10.0 mi West 10.4 mph - N/A   Overcast
9:55 AM 71.6 °F - 64.4 °F 78% 29.93 in 10.0 mi West 10.4 mph - N/A   Overcast
10:15 AM 71.6 °F - 64.4 °F 78% 29.93 in 10.0 mi WNW 6.9 mph - N/A   Overcast
10:35 AM 71.6 °F - 64.4 °F 78% 29.94 in 10.0 mi WNW 10.4 mph - N/A   Overcast
10:55 AM 73.4 °F - 64.4 °F 73% 29.95 in 10.0 mi West 8.1 mph - N/A   Overcast
11:15 AM 75.2 °F - 66.2 °F 73% 29.95 in 10.0 mi WNW 9.2 mph - N/A   Mostly Cloudy
11:35 AM 77.0 °F - 66.2 °F 69% 29.95 in 10.0 mi West 9.2 mph - N/A   Mostly Cloudy
11:55 AM 77.0 °F - 66.2 °F 69% 29.95 in 10.0 mi WNW 9.2 mph - N/A   Overcast
12:15 PM 77.0 °F - 66.2 °F 69% 29.95 in 10.0 mi WSW 6.9 mph - N/A   Scattered Clouds
12:35 PM 78.8 °F - 66.2 °F 65% 29.95 in 10.0 mi West 6.9 mph - N/A   Mostly Cloudy
12:55 PM 78.8 °F - 66.2 °F 65% 29.95 in 10.0 mi West 10.4 mph - N/A   Overcast
1:15 PM 78.8 °F - 66.2 °F 65% 29.94 in 10.0 mi West 8.1 mph - N/A   Mostly Cloudy
1:35 PM 80.6 °F 82.7 °F 66.2 °F 61% 29.94 in 10.0 mi West 6.9 mph - N/A   Mostly Cloudy
2:15 PM 80.6 °F 82.7 °F 66.2 °F 61% 29.93 in 10.0 mi SW 5.8 mph - N/A   Overcast
2:35 PM 80.6 °F 82.7 °F 66.2 °F 61% 29.93 in 10.0 mi West 5.8 mph - N/A   Mostly Cloudy
2:55 PM 80.6 °F 82.7 °F 66.2 °F 61% 29.92 in 10.0 mi West 5.8 mph - N/A   Partly Cloudy
3:15 PM 80.6 °F 82.7 °F 66.2 °F 61% 29.92 in 10.0 mi WSW 4.6 mph - N/A   Mostly Cloudy
3:35 PM 80.6 °F 83.2 °F 68.0 °F 65% 29.92 in 10.0 mi Calm Calm - N/A   Overcast
3:55 PM 82.4 °F 86.3 °F 69.8 °F 66% 29.91 in 10.0 mi SW 4.6 mph - N/A   Overcast
4:15 PM 82.4 °F 85.4 °F 68.0 °F 62% 29.91 in 10.0 mi SSW 9.2 mph - N/A   Overcast
4:35 PM 82.4 °F 85.4 °F 68.0 °F 62% 29.91 in 10.0 mi WSW 5.8 mph - N/A   Mostly Cloudy
4:55 PM 82.4 °F 85.4 °F 68.0 °F 62% 29.90 in 10.0 mi SSW 5.8 mph - N/A   Clear
5:15 PM 82.4 °F 84.6 °F 66.2 °F 58% 29.91 in 10.0 mi Calm Calm - N/A   Scattered Clouds
5:35 PM 82.4 °F 84.6 °F 66.2 °F 58% 29.91 in 10.0 mi SSW 5.8 mph - N/A   Mostly Cloudy
5:55 PM 82.4 °F 84.6 °F 66.2 °F 58% 29.91 in 10.0 mi Calm Calm - N/A   Overcast
6:15 PM 82.4 °F 85.4 °F 68.0 °F 62% 29.90 in 10.0 mi SW 4.6 mph - N/A   Mostly Cloudy
6:35 PM 80.6 °F 82.7 °F 66.2 °F 61% 29.90 in 10.0 mi South 5.8 mph - N/A   Partly Cloudy
6:55 PM 80.6 °F 83.2 °F 68.0 °F 65% 29.90 in 10.0 mi SSW 5.8 mph - N/A   Scattered Clouds
7:15 PM 80.6 °F 83.2 °F 68.0 °F 65% 29.90 in 10.0 mi SSW 4.6 mph - N/A   Partly Cloudy
7:35 PM 80.6 °F 83.2 °F 68.0 °F 65% 29.91 in 10.0 mi South 5.8 mph - N/A   Clear
7:55 PM 78.8 °F - 69.8 °F 74% 29.91 in 10.0 mi SE 5.8 mph - N/A   Clear
8:15 PM 78.8 °F - 69.8 °F 74% 29.91 in 10.0 mi SSE 5.8 mph - N/A   Clear
8:35 PM 77.0 °F - 68.0 °F 74% 29.92 in 10.0 mi SSE 5.8 mph - N/A   Clear
8:55 PM 75.2 °F - 69.8 °F 83% 29.92 in 10.0 mi SE 4.6 mph - N/A   Clear
9:15 PM 75.2 °F - 68.0 °F 78% 29.93 in 10.0 mi SE 5.8 mph - N/A   Mostly Cloudy
10:35 PM 75.2 °F - 69.8 °F 83% 29.95 in 10.0 mi SE 6.9 mph - N/A   Overcast
10:55 PM 75.2 °F - 69.8 °F 83% 29.95 in 9.0 mi SE 5.8 mph - N/A   Mostly Cloudy
11:15 PM 75.2 °F - 69.8 °F 83% 29.95 in 8.0 mi ESE 4.6 mph - N/A   Overcast